Вернуться в каталог

MORELOS 2 R/B

PAM-D

АктивенGTO
NORAD 16293·ROCKET BODY·🇺🇸 United States

Запущен Nov 27, 1985 с Cape Canaveral Space Force Station

Loading…

TLE

УстаревшееSource: Space-Track

Эпоха: Sep 12, 2026, 17:52 UTC

1 16293U 85109F   26255.74488281  .00000912  00000-0  84385-3 0  9999
2 16293  25.3494 146.4517 7170830 117.9566 330.0379  2.37953519282864

Отслеживайте MORELOS 2 R/B в реальном времени с AllMySat

Download on the App Store